Time,TemperatureF,DewpointF,PressureIn,WindDirection,WindDirectionDegrees,WindSpeedMPH,WindSpeedGustMPH,Humidity,HourlyPrecipIn,Conditions,Clouds,dailyrainin,SolarRadiationWatts/m^2,SoftwareType,DateUTC
2013-07-20 00:02:00,75.4,73.2,30.10,ESE,112,1.0,2.0,93,0.00,,,0.00,0,Wunderground v.1.15,2013-07-20 04:02:00,
2013-07-20 00:07:00,75.4,73.2,30.10,SE,124,2.0,2.0,93,0.00,,,0.00,0,Wunderground v.1.15,2013-07-20 04:07:00,
2013-07-20 00:12:00,75.4,73.2,30.10,SE,127,3.0,3.0,93,0.00,,,0.00,0,Wunderground v.1.15,2013-07-20 04:12:00,
2013-07-20 00:22:00,75.3,73.1,30.10,ESE,119,3.0,5.0,93,0.00,,,0.00,0,Wunderground v.1.15,2013-07-20 04:22:00,
2013-07-20 00:27:00,75.3,73.1,30.10,SE,124,3.0,5.0,93,0.00,,,0.00,0,Wunderground v.1.15,2013-07-20 04:27:00,
2013-07-20 00:32:00,75.3,73.1,30.10,East,90,3.0,3.0,93,0.00,,,0.00,0,Wunderground v.1.15,2013-07-20 04:32:00,
2013-07-20 00:37:00,75.3,73.1,30.09,ESE,116,2.0,3.0,93,0.00,,,0.00,0,Wunderground v.1.15,2013-07-20 04:37:00,
2013-07-20 00:42:00,75.3,73.1,30.09,East,89,2.0,2.0,93,0.00,,,0.00,0,Wunderground v.1.15,2013-07-20 04:42:00,
2013-07-20 00:47:00,75.4,73.2,30.09,ESE,114,2.0,2.0,93,0.00,,,0.00,0,Wunderground v.1.15,2013-07-20 04:47:00,
2013-07-20 00:52:00,75.4,73.2,30.09,SE,136,2.0,6.0,93,0.00,,,0.00,0,Wunderground v.1.15,2013-07-20 04:52:00,
2013-07-20 01:12:00,75.4,73.2,30.08,ESE,120,4.0,4.0,93,0.00,,,0.00,0,Wunderground v.1.15,2013-07-20 05:12:00,
2013-07-20 01:17:00,75.4,73.2,30.08,ESE,110,4.0,4.0,93,0.00,,,0.00,0,Wunderground v.1.15,2013-07-20 05:17:00,
2013-07-20 01:27:00,75.3,73.1,30.08,SE,143,3.0,4.0,93,0.00,,,0.00,0,Wunderground v.1.15,2013-07-20 05:27:00,
2013-07-20 01:37:00,75.3,73.1,30.07,SE,127,3.0,3.0,93,0.00,,,0.00,0,Wunderground v.1.15,2013-07-20 05:37:00,
2013-07-20 01:47:00,75.1,72.9,30.07,ESE,120,1.0,3.0,93,0.00,,,0.00,0,Wunderground v.1.15,2013-07-20 05:47:00,
2013-07-20 01:52:00,75.1,72.9,30.07,ESE,120,2.0,2.0,93,0.00,,,0.00,0,Wunderground v.1.15,2013-07-20 05:52:00,
2013-07-20 01:57:00,75.1,72.9,30.07,ESE,120,1.0,2.0,93,0.00,,,0.00,0,Wunderground v.1.15,2013-07-20 05:57:00,
2013-07-20 02:07:00,75.1,72.9,30.07,ESE,120,1.0,1.0,93,0.00,,,0.00,0,Wunderground v.1.15,2013-07-20 06:07:00,
2013-07-20 02:17:00,74.9,72.7,30.06,ESE,120,1.0,1.0,93,0.00,,,0.00,0,Wunderground v.1.15,2013-07-20 06:17:00,
2013-07-20 02:27:00,74.9,72.7,30.06,ESE,120,0.0,1.0,93,0.00,,,0.00,0,Wunderground v.1.15,2013-07-20 06:27:00,
2013-07-20 02:37:00,74.9,72.7,30.06,ESE,120,0.0,0.0,93,0.00,,,0.00,0,Wunderground v.1.15,2013-07-20 06:37:00,
2013-07-20 02:42:00,74.7,72.5,30.06,ESE,120,0.0,0.0,93,0.00,,,0.00,0,Wunderground v.1.15,2013-07-20 06:42:00,
2013-07-20 02:47:00,74.7,72.5,30.06,ESE,120,0.0,0.0,93,0.00,,,0.00,0,Wunderground v.1.15,2013-07-20 06:47:00,
2013-07-20 02:57:00,74.7,72.5,30.05,ESE,120,0.0,0.0,93,0.00,,,0.00,0,Wunderground v.1.15,2013-07-20 06:57:00,
2013-07-20 03:02:00,74.7,72.5,30.05,ESE,120,0.0,0.0,93,0.00,,,0.00,0,Wunderground v.1.15,2013-07-20 07:02:00,
2013-07-20 03:12:00,74.6,72.8,30.05,ESE,120,0.0,0.0,94,0.00,,,0.00,0,Wunderground v.1.15,2013-07-20 07:12:00,
2013-07-20 03:22:00,74.6,72.8,30.05,ESE,120,0.0,0.0,94,0.00,,,0.00,0,Wunderground v.1.15,2013-07-20 07:22:00,
2013-07-20 03:32:00,74.6,72.8,30.04,ESE,120,0.0,0.0,94,0.00,,,0.00,0,Wunderground v.1.15,2013-07-20 07:32:00,
2013-07-20 03:37:00,74.6,72.8,30.04,ESE,117,0.0,1.0,94,0.00,,,0.00,0,Wunderground v.1.15,2013-07-20 07:37:00,
2013-07-20 03:47:00,74.6,72.8,30.04,ESE,117,0.0,1.0,94,0.00,,,0.00,0,Wunderground v.1.15,2013-07-20 07:47:00,
2013-07-20 03:57:00,74.6,72.8,30.04,ESE,107,1.0,1.0,94,0.00,,,0.00,0,Wunderground v.1.15,2013-07-20 07:57:00,
2013-07-20 04:02:00,74.6,72.8,30.04,ESE,109,0.0,0.0,94,0.00,,,0.00,0,Wunderground v.1.15,2013-07-20 08:02:00,
2013-07-20 04:12:00,74.7,72.9,30.04,ESE,109,1.0,1.0,94,0.00,,,0.00,0,Wunderground v.1.15,2013-07-20 08:12:00,
2013-07-20 04:17:00,74.7,72.9,30.04,ESE,109,1.0,1.0,94,0.00,,,0.00,0,Wunderground v.1.15,2013-07-20 08:17:00,
2013-07-20 04:27:00,74.7,72.9,30.04,East,96,1.0,1.0,94,0.00,,,0.00,0,Wunderground v.1.15,2013-07-20 08:27:00,
2013-07-20 04:32:00,74.7,72.9,30.04,East,96,0.0,0.0,94,0.00,,,0.00,0,Wunderground v.1.15,2013-07-20 08:32:00,
2013-07-20 04:42:00,74.6,72.8,30.04,East,96,0.0,0.0,94,0.00,,,0.00,0,Wunderground v.1.15,2013-07-20 08:42:00,
2013-07-20 04:47:00,74.6,72.8,30.04,East,96,0.0,0.0,94,0.00,,,0.00,0,Wunderground v.1.15,2013-07-20 08:47:00,
2013-07-20 04:57:00,74.6,72.8,30.03,East,96,0.0,2.0,94,0.00,,,0.00,0,Wunderground v.1.15,2013-07-20 08:57:00,
2013-07-20 05:02:00,74.6,72.8,30.03,East,93,0.0,2.0,94,0.00,,,0.00,0,Wunderground v.1.15,2013-07-20 09:02:00,
2013-07-20 05:07:00,74.6,72.8,30.03,East,96,1.0,2.0,94,0.00,,,0.00,0,Wunderground v.1.15,2013-07-20 09:07:00,
2013-07-20 05:12:00,74.6,72.8,30.04,East,93,0.0,1.0,94,0.00,,,0.00,0,Wunderground v.1.15,2013-07-20 09:12:00,
2013-07-20 05:17:00,74.6,72.8,30.04,East,96,0.0,1.0,94,0.00,,,0.00,0,Wunderground v.1.15,2013-07-20 09:17:00,
2013-07-20 05:22:00,74.6,72.8,30.04,ESE,104,1.0,3.0,94,0.00,,,0.00,0,Wunderground v.1.15,2013-07-20 09:22:00,
2013-07-20 05:27:00,74.6,73.1,30.03,ESE,104,1.0,3.0,95,0.00,,,0.00,0,Wunderground v.1.15,2013-07-20 09:27:00,
2013-07-20 05:32:00,74.6,73.1,30.03,ESE,104,1.0,1.0,95,0.00,,,0.00,0,Wunderground v.1.15,2013-07-20 09:32:00,
2013-07-20 05:37:00,74.7,73.2,30.03,ESE,104,1.0,1.0,95,0.00,,,0.00,0,Wunderground v.1.15,2013-07-20 09:37:00,
2013-07-20 05:42:00,74.7,73.2,30.04,ESE,104,1.0,3.0,95,0.00,,,0.00,0,Wunderground v.1.15,2013-07-20 09:42:00,
2013-07-20 05:47:00,74.7,73.2,30.04,ESE,104,0.0,3.0,95,0.00,,,0.00,0,Wunderground v.1.15,2013-07-20 09:47:00,
2013-07-20 05:52:00,74.7,73.2,30.04,ESE,104,0.0,0.0,95,0.00,,,0.00,0,Wunderground v.1.15,2013-07-20 09:52:00,
2013-07-20 06:02:00,74.7,73.2,30.04,ESE,104,0.0,0.0,95,0.00,,,0.00,0,Wunderground v.1.15,2013-07-20 10:02:00,
2013-07-20 06:07:00,74.9,73.4,30.04,ESE,104,0.0,0.0,95,0.00,,,0.00,0,Wunderground v.1.15,2013-07-20 10:07:00,
2013-07-20 06:12:00,74.9,73.4,30.04,ESE,104,1.0,1.0,95,0.00,,,0.00,0,Wunderground v.1.15,2013-07-20 10:12:00,
2013-07-20 06:22:00,75.1,73.6,30.04,ESE,104,0.0,0.0,95,0.00,,,0.00,0,Wunderground v.1.15,2013-07-20 10:22:00,
2013-07-20 06:27:00,75.1,73.6,30.04,ESE,104,0.0,0.0,95,0.00,,,0.00,0,Wunderground v.1.15,2013-07-20 10:27:00,
2013-07-20 06:37:00,75.1,73.6,30.05,ESE,102,0.0,1.0,95,0.00,,,0.00,0,Wunderground v.1.15,2013-07-20 10:37:00,
2013-07-20 06:42:00,75.1,73.6,30.05,ESE,104,0.0,0.0,95,0.00,,,0.00,0,Wunderground v.1.15,2013-07-20 10:42:00,
2013-07-20 06:47:00,75.1,73.6,30.05,ESE,104,0.0,0.0,95,0.00,,,0.00,0,Wunderground v.1.15,2013-07-20 10:47:00,
2013-07-20 06:52:00,75.3,73.8,30.05,ESE,104,0.0,0.0,95,0.00,,,0.00,0,Wunderground v.1.15,2013-07-20 10:52:00,
2013-07-20 07:02:00,75.3,73.8,30.05,ESE,104,0.0,0.0,95,0.00,,,0.00,0,Wunderground v.1.15,2013-07-20 11:02:00,
2013-07-20 07:07:00,75.3,73.8,30.05,ESE,104,0.0,0.0,95,0.00,,,0.00,0,Wunderground v.1.15,2013-07-20 11:07:00,
2013-07-20 07:17:00,75.4,73.9,30.06,ESE,104,0.0,2.0,95,0.00,,,0.00,9,Wunderground v.1.15,2013-07-20 11:17:00,
2013-07-20 07:22:00,75.4,73.9,30.06,ESE,104,1.0,1.0,95,0.00,,,0.00,16,Wunderground v.1.15,2013-07-20 11:22:00,
2013-07-20 07:32:00,75.6,74.1,30.05,East,93,1.0,1.0,95,0.00,,,0.00,26,Wunderground v.1.15,2013-07-20 11:32:00,
2013-07-20 07:37:00,75.8,74.3,30.06,East,93,1.0,1.0,95,0.00,,,0.00,30,Wunderground v.1.15,2013-07-20 11:37:00,
2013-07-20 07:42:00,75.8,74.3,30.06,ESE,112,0.0,2.0,95,0.00,,,0.00,32,Wunderground v.1.15,2013-07-20 11:42:00,
2013-07-20 07:52:00,76.0,74.5,30.06,ESE,106,1.0,3.0,95,0.00,,,0.00,46,Wunderground v.1.15,2013-07-20 11:52:00,
2013-07-20 08:02:00,76.3,74.8,30.07,ESE,119,3.0,3.0,95,0.00,,,0.00,53,Wunderground v.1.15,2013-07-20 12:02:00,
2013-07-20 08:07:00,76.5,75.0,30.07,ESE,104,3.0,3.0,95,0.00,,,0.00,55,Wunderground v.1.15,2013-07-20 12:07:00,
2013-07-20 08:12:00,76.5,75.0,30.07,East,93,3.0,4.0,95,0.00,,,0.00,53,Wunderground v.1.15,2013-07-20 12:12:00,
2013-07-20 08:17:00,76.7,75.2,30.07,ESE,102,2.0,4.0,95,0.00,,,0.00,62,Wunderground v.1.15,2013-07-20 12:17:00,
2013-07-20 08:22:00,76.8,75.3,30.07,East,96,2.0,5.0,95,0.00,,,0.00,65,Wunderground v.1.15,2013-07-20 12:22:00,
2013-07-20 08:27:00,76.8,75.3,30.07,ESE,107,3.0,5.0,95,0.00,,,0.00,70,Wunderground v.1.15,2013-07-20 12:27:00,
2013-07-20 08:37:00,77.0,75.5,30.08,ESE,120,4.0,4.0,95,0.00,,,0.00,90,Wunderground v.1.15,2013-07-20 12:37:00,
2013-07-20 08:42:00,77.0,75.5,30.08,ESE,123,4.0,5.0,95,0.00,,,0.00,100,Wunderground v.1.15,2013-07-20 12:42:00,
2013-07-20 08:47:00,76.8,75.3,30.08,SE,128,4.0,5.0,95,0.00,,,0.00,114,Wunderground v.1.15,2013-07-20 12:47:00,
2013-07-20 08:52:00,76.8,75.3,30.09,East,95,5.0,6.0,95,0.00,,,0.00,128,Wunderground v.1.15,2013-07-20 12:52:00,
2013-07-20 08:57:00,76.8,75.3,30.09,ESE,104,4.0,6.0,95,0.00,,,0.00,123,Wunderground v.1.15,2013-07-20 12:57:00,
2013-07-20 09:02:00,77.0,75.5,30.09,ESE,114,4.0,5.0,95,0.00,,,0.00,141,Wunderground v.1.15,2013-07-20 13:02:00,
2013-07-20 09:07:00,77.0,75.5,30.09,ESE,104,4.0,6.0,95,0.00,,,0.00,151,Wunderground v.1.15,2013-07-20 13:07:00,
2013-07-20 09:17:00,77.2,75.3,30.09,ESE,116,3.0,4.0,94,0.00,,,0.00,134,Wunderground v.1.15,2013-07-20 13:17:00,
2013-07-20 09:22:00,77.4,75.5,30.09,SE,128,3.0,5.0,94,0.00,,,0.00,125,Wunderground v.1.15,2013-07-20 13:22:00,
2013-07-20 09:32:00,77.4,75.5,30.09,SE,124,4.0,6.0,94,0.00,,,0.00,130,Wunderground v.1.15,2013-07-20 13:32:00,
2013-07-20 09:37:00,77.6,75.7,30.09,SE,124,4.0,6.0,94,0.00,,,0.00,141,Wunderground v.1.15,2013-07-20 13:37:00,
2013-07-20 09:42:00,77.7,75.8,30.09,SE,131,3.0,3.0,94,0.00,,,0.00,157,Wunderground v.1.15,2013-07-20 13:42:00,
2013-07-20 09:47:00,77.9,76.0,30.09,ESE,114,2.0,3.0,94,0.00,,,0.00,174,Wunderground v.1.15,2013-07-20 13:47:00,
2013-07-20 09:57:00,78.1,75.9,30.09,ESE,113,4.0,5.0,93,0.00,,,0.00,201,Wunderground v.1.15,2013-07-20 13:57:00,
2013-07-20 10:02:00,78.3,76.1,30.09,ESE,103,4.0,4.0,93,0.00,,,0.00,199,Wunderground v.1.15,2013-07-20 14:02:00,
2013-07-20 10:12:00,78.8,76.6,30.09,SE,130,3.0,4.0,93,0.00,,,0.00,202,Wunderground v.1.15,2013-07-20 14:12:00,
2013-07-20 10:17:00,79.0,76.8,30.09,SE,127,3.0,4.0,93,0.00,,,0.00,206,Wunderground v.1.15,2013-07-20 14:17:00,
2013-07-20 10:22:00,79.2,76.7,30.09,ESE,113,3.0,6.0,92,0.00,,,0.00,213,Wunderground v.1.15,2013-07-20 14:22:00,
2013-07-20 10:32:00,79.6,77.1,30.09,ESE,120,4.0,6.0,92,0.00,,,0.00,201,Wunderground v.1.15,2013-07-20 14:32:00,
2013-07-20 10:42:00,79.8,76.9,30.09,SE,124,5.0,5.0,91,0.00,,,0.00,185,Wunderground v.1.15,2013-07-20 14:42:00,
2013-07-20 10:47:00,79.9,77.0,30.09,ESE,119,5.0,6.0,91,0.00,,,0.00,176,Wunderground v.1.15,2013-07-20 14:47:00,
2013-07-20 10:52:00,80.3,77.1,30.09,SE,133,4.0,6.0,90,0.00,,,0.00,187,Wunderground v.1.15,2013-07-20 14:52:00,
2013-07-20 10:57:00,80.5,77.3,30.09,ESE,119,4.0,6.0,90,0.00,,,0.00,206,Wunderground v.1.15,2013-07-20 14:57:00,
2013-07-20 11:07:00,81.1,77.5,30.09,ESE,109,5.0,6.0,89,0.00,,,0.00,230,Wunderground v.1.15,2013-07-20 15:07:00,
2013-07-20 11:12:00,81.1,77.2,30.09,SE,141,5.0,6.0,88,0.00,,,0.00,216,Wunderground v.1.15,2013-07-20 15:12:00,
2013-07-20 11:22:00,81.4,77.5,30.09,SE,130,3.0,4.0,88,0.00,,,0.00,187,Wunderground v.1.15,2013-07-20 15:22:00,
2013-07-20 11:27:00,81.4,77.2,30.09,ESE,113,3.0,4.0,87,0.00,,,0.00,188,Wunderground v.1.15,2013-07-20 15:27:00,
2013-07-20 11:32:00,81.4,77.2,30.09,ESE,117,4.0,6.0,87,0.00,,,0.00,192,Wunderground v.1.15,2013-07-20 15:32:00,
2013-07-20 11:42:00,81.6,77.4,30.10,SE,127,3.0,5.0,87,0.00,,,0.00,187,Wunderground v.1.15,2013-07-20 15:42:00,
2013-07-20 11:52:00,81.4,77.2,30.10,ESE,119,4.0,4.0,87,0.00,,,0.00,187,Wunderground v.1.15,2013-07-20 15:52:00,
2013-07-20 11:57:00,81.6,77.4,30.10,SE,144,3.0,4.0,87,0.00,,,0.00,202,Wunderground v.1.15,2013-07-20 15:57:00,
2013-07-20 12:07:00,81.8,77.2,30.10,East,92,2.0,2.0,86,0.00,,,0.00,271,Wunderground v.1.15,2013-07-20 16:07:00,
2013-07-20 12:12:00,82.2,77.9,30.10,SE,145,1.0,1.0,87,0.00,,,0.00,287,Wunderground v.1.15,2013-07-20 16:12:00,
2013-07-20 12:17:00,82.4,77.8,30.10,SSE,162,2.0,3.0,86,0.00,,,0.00,310,Wunderground v.1.15,2013-07-20 16:17:00,
2013-07-20 12:27:00,83.2,78.2,30.10,SE,124,3.0,5.0,85,0.00,,,0.00,315,Wunderground v.1.15,2013-07-20 16:27:00,
2013-07-20 12:37:00,83.4,77.7,30.10,SSE,157,3.0,4.0,83,0.00,,,0.00,336,Wunderground v.1.15,2013-07-20 16:37:00,
2013-07-20 12:42:00,83.4,77.3,30.10,SE,134,2.0,3.0,82,0.00,,,0.00,378,Wunderground v.1.15,2013-07-20 16:42:00,
2013-07-20 12:52:00,84.0,77.9,30.09,ESE,109,4.0,6.0,82,0.00,,,0.00,493,Wunderground v.1.15,2013-07-20 16:52:00,
2013-07-20 12:57:00,84.3,77.8,30.09,SE,131,4.0,6.0,81,0.00,,,0.00,463,Wunderground v.1.15,2013-07-20 16:57:00,
2013-07-20 13:02:00,84.3,78.2,30.09,SE,127,3.0,3.0,82,0.00,,,0.00,472,Wunderground v.1.15,2013-07-20 17:02:00,
2013-07-20 13:07:00,84.5,78.0,30.09,ESE,109,3.0,4.0,81,0.00,,,0.00,445,Wunderground v.1.15,2013-07-20 17:07:00,
2013-07-20 13:12:00,84.7,77.8,30.09,SSE,155,3.0,3.0,80,0.00,,,0.00,524,Wunderground v.1.15,2013-07-20 17:12:00,
2013-07-20 13:22:00,86.1,78.8,30.08,SE,137,2.0,3.0,79,0.00,,,0.00,614,Wunderground v.1.15,2013-07-20 17:22:00,
2013-07-20 13:27:00,85.5,77.1,30.08,ESE,123,4.0,4.0,76,0.00,,,0.00,470,Wunderground v.1.15,2013-07-20 17:27:00,
2013-07-20 13:32:00,85.3,77.3,30.08,SE,141,4.0,4.0,77,0.00,,,0.00,415,Wunderground v.1.15,2013-07-20 17:32:00,
2013-07-20 13:42:00,85.3,77.7,30.07,South,178,4.0,4.0,78,0.00,,,0.00,489,Wunderground v.1.15,2013-07-20 17:42:00,
2013-07-20 13:52:00,86.1,78.0,30.07,ESE,117,3.0,5.0,77,0.00,,,0.00,487,Wunderground v.1.15,2013-07-20 17:52:00,
2013-07-20 13:57:00,86.3,77.0,30.07,SE,141,3.0,5.0,74,0.00,,,0.00,486,Wunderground v.1.15,2013-07-20 17:57:00,
2013-07-20 14:02:00,86.3,77.0,30.06,East,90,4.0,4.0,74,0.00,,,0.00,377,Wunderground v.1.15,2013-07-20 18:02:00,
2013-07-20 14:07:00,85.7,76.5,30.06,ESE,116,4.0,4.0,74,0.00,,,0.00,396,Wunderground v.1.15,2013-07-20 18:07:00,
2013-07-20 14:12:00,85.9,75.4,30.05,SSE,150,3.0,3.0,71,0.00,,,0.00,443,Wunderground v.1.15,2013-07-20 18:12:00,
2013-07-20 14:17:00,86.7,75.7,30.05,SSW,203,2.0,3.0,70,0.00,,,0.00,450,Wunderground v.1.15,2013-07-20 18:17:00,
2013-07-20 14:22:00,86.7,75.3,30.05,ESE,120,2.0,2.0,69,0.00,,,0.00,452,Wunderground v.1.15,2013-07-20 18:22:00,
2013-07-20 14:27:00,86.5,74.2,30.04,South,189,2.0,2.0,67,0.00,,,0.00,380,Wunderground v.1.15,2013-07-20 18:27:00,
2013-07-20 14:32:00,86.7,74.9,30.04,SSW,206,2.0,3.0,68,0.00,,,0.00,384,Wunderground v.1.15,2013-07-20 18:32:00,
2013-07-20 14:42:00,87.4,75.5,30.03,South,182,2.0,2.0,68,0.00,,,0.00,489,Wunderground v.1.15,2013-07-20 18:42:00,
2013-07-20 14:47:00,88.2,76.3,30.03,SSW,210,3.0,5.0,68,0.00,,,0.00,927,Wunderground v.1.15,2013-07-20 18:47:00,
2013-07-20 14:52:00,88.6,76.7,30.02,SW,219,3.0,3.0,68,0.00,,,0.00,906,Wunderground v.1.15,2013-07-20 18:52:00,
2013-07-20 15:02:00,89.0,75.7,30.02,SSW,213,4.0,4.0,65,0.00,,,0.00,929,Wunderground v.1.15,2013-07-20 19:02:00,
2013-07-20 15:12:00,89.7,75.4,30.02,South,184,3.0,4.0,63,0.00,,,0.00,929,Wunderground v.1.15,2013-07-20 19:12:00,
2013-07-20 15:22:00,89.7,74.5,30.03,SSE,160,4.0,4.0,61,0.00,,,0.00,927,Wunderground v.1.15,2013-07-20 19:22:00,
2013-07-20 15:37:00,89.3,73.1,30.02,SW,236,4.0,5.0,59,0.00,,,0.00,294,Wunderground v.1.15,2013-07-20 19:37:00,
2013-07-20 15:52:00,89.7,74.0,30.01,South,176,5.0,5.0,60,0.00,,,0.00,973,Wunderground v.1.15,2013-07-20 19:52:00,
2013-07-20 15:57:00,89.9,74.6,30.01,SW,223,5.0,8.0,61,0.00,,,0.00,973,Wunderground v.1.15,2013-07-20 19:57:00,
2013-07-20 16:02:00,89.9,73.7,30.01,SW,222,6.0,6.0,59,0.00,,,0.00,973,Wunderground v.1.15,2013-07-20 20:02:00,
2013-07-20 16:07:00,89.5,73.8,30.01,SW,222,7.0,7.0,60,0.00,,,0.00,575,Wunderground v.1.15,2013-07-20 20:07:00,
2013-07-20 16:12:00,89.0,73.3,30.02,WSW,241,6.0,6.0,60,0.00,,,0.00,561,Wunderground v.1.15,2013-07-20 20:12:00,
2013-07-20 16:17:00,89.0,73.8,30.02,SSE,167,6.0,6.0,61,0.00,,,0.00,648,Wunderground v.1.15,2013-07-20 20:17:00,
2013-07-20 16:32:00,89.5,74.3,30.02,SSE,164,5.0,5.0,61,0.00,,,0.00,540,Wunderground v.1.15,2013-07-20 20:32:00,
2013-07-20 16:47:00,88.6,73.4,30.01,South,185,4.0,6.0,61,0.00,,,0.00,362,Wunderground v.1.15,2013-07-20 20:47:00,
2013-07-20 16:52:00,88.4,73.7,30.01,SW,227,3.0,6.0,62,0.00,,,0.00,449,Wunderground v.1.15,2013-07-20 20:52:00,
2013-07-20 16:57:00,88.6,74.9,30.01,South,184,4.0,6.0,64,0.00,,,0.00,449,Wunderground v.1.15,2013-07-20 20:57:00,
2013-07-20 17:02:00,88.6,74.4,30.01,SW,215,4.0,5.0,63,0.00,,,0.00,445,Wunderground v.1.15,2013-07-20 21:02:00,
2013-07-20 17:07:00,88.4,73.7,30.01,WNW,284,4.0,5.0,62,0.00,,,0.00,398,Wunderground v.1.15,2013-07-20 21:07:00,
2013-07-20 17:12:00,88.4,74.7,30.01,South,184,4.0,4.0,64,0.00,,,0.00,424,Wunderground v.1.15,2013-07-20 21:12:00,
2013-07-20 17:22:00,88.8,75.5,30.01,SSE,155,5.0,10.0,65,0.00,,,0.00,533,Wunderground v.1.15,2013-07-20 21:22:00,
2013-07-20 17:32:00,88.4,75.6,30.01,SW,216,4.0,4.0,66,0.00,,,0.00,607,Wunderground v.1.15,2013-07-20 21:32:00,
2013-07-20 17:47:00,88.6,74.4,30.01,South,176,3.0,5.0,63,0.00,,,0.00,565,Wunderground v.1.15,2013-07-20 21:47:00,
2013-07-20 17:57:00,88.2,76.3,30.02,SSE,162,3.0,5.0,68,0.00,,,0.00,410,Wunderground v.1.15,2013-07-20 21:57:00,
2013-07-20 18:07:00,88.4,75.1,30.02,South,182,3.0,6.0,65,0.00,,,0.00,398,Wunderground v.1.15,2013-07-20 22:07:00,
2013-07-20 18:12:00,87.6,75.3,30.02,ESE,120,5.0,10.0,67,0.00,,,0.00,273,Wunderground v.1.15,2013-07-20 22:12:00,
2013-07-20 18:17:00,84.0,72.7,30.02,ESE,112,7.0,14.0,69,0.00,,,0.00,267,Wunderground v.1.15,2013-07-20 22:17:00,
2013-07-20 18:27:00,82.2,72.3,30.02,SE,133,9.0,17.0,72,0.00,,,0.00,230,Wunderground v.1.15,2013-07-20 22:27:00,
2013-07-20 18:32:00,82.2,72.3,30.02,ESE,121,10.0,10.0,72,0.00,,,0.00,267,Wunderground v.1.15,2013-07-20 22:32:00,
2013-07-20 18:42:00,82.8,72.8,30.02,SE,131,7.0,7.0,72,0.00,,,0.00,192,Wunderground v.1.15,2013-07-20 22:42:00,
2013-07-20 18:52:00,83.0,73.4,30.02,South,174,4.0,5.0,73,0.00,,,0.00,187,Wunderground v.1.15,2013-07-20 22:52:00,
2013-07-20 19:12:00,83.0,73.9,30.02,SE,144,3.0,3.0,74,0.00,,,0.00,137,Wunderground v.1.15,2013-07-20 23:12:00,
2013-07-20 19:17:00,83.2,74.0,30.01,SE,144,2.0,3.0,74,0.00,,,0.00,127,Wunderground v.1.15,2013-07-20 23:17:00,
2013-07-20 19:27:00,83.2,73.6,30.01,ESE,109,2.0,3.0,73,0.00,,,0.00,106,Wunderground v.1.15,2013-07-20 23:27:00,
2013-07-20 19:32:00,83.2,74.0,30.01,East,90,2.0,4.0,74,0.00,,,0.00,95,Wunderground v.1.15,2013-07-20 23:32:00,
2013-07-20 19:52:00,83.0,73.0,30.01,East,95,1.0,1.0,72,0.00,,,0.00,63,Wunderground v.1.15,2013-07-20 23:52:00,
2013-07-20 20:02:00,82.8,72.8,30.01,East,85,1.0,2.0,72,0.00,,,0.00,53,Wunderground v.1.15,2013-07-21 00:02:00,
2013-07-20 20:12:00,82.6,73.1,30.02,East,83,3.0,3.0,73,0.00,,,0.00,30,Wunderground v.1.15,2013-07-21 00:12:00,
2013-07-20 20:22:00,82.4,73.7,30.02,ESE,112,3.0,3.0,75,0.00,,,0.00,19,Wunderground v.1.15,2013-07-21 00:22:00,
2013-07-20 20:37:00,81.4,73.5,30.02,ESE,116,3.0,7.0,77,0.00,,,0.00,0,Wunderground v.1.15,2013-07-21 00:37:00,
2013-07-20 20:42:00,81.1,73.2,30.02,ESE,103,3.0,3.0,77,0.00,,,0.00,0,Wunderground v.1.15,2013-07-21 00:42:00,
2013-07-20 20:52:00,80.5,73.0,30.02,East,96,2.0,2.0,78,0.00,,,0.00,0,Wunderground v.1.15,2013-07-21 00:52:00,
2013-07-20 20:57:00,80.1,72.6,30.03,ESE,103,2.0,2.0,78,0.00,,,0.00,0,Wunderground v.1.15,2013-07-21 00:57:00,
2013-07-20 21:02:00,79.9,72.8,30.03,ESE,109,1.0,2.0,79,0.00,,,0.00,0,Wunderground v.1.15,2013-07-21 01:02:00,
2013-07-20 21:12:00,79.6,72.5,30.03,ESE,109,2.0,2.0,79,0.00,,,0.00,0,Wunderground v.1.15,2013-07-21 01:12:00,
2013-07-20 21:22:00,79.2,72.1,30.04,SE,131,1.0,1.0,79,0.00,,,0.00,0,Wunderground v.1.15,2013-07-21 01:22:00,
2013-07-20 21:32:00,78.8,71.7,30.04,SE,131,2.0,2.0,79,0.00,,,0.00,0,Wunderground v.1.15,2013-07-21 01:32:00,
2013-07-20 22:42:00,78.1,72.9,30.06,SE,131,0.0,0.0,84,0.00,,,0.00,0,Wunderground v.1.15,2013-07-21 02:42:00,
2013-07-20 22:47:00,78.1,72.9,30.06,SE,131,0.0,0.0,84,0.00,,,0.00,0,Wunderground v.1.15,2013-07-21 02:47:00,
2013-07-20 22:57:00,78.1,73.2,30.06,SE,131,0.0,0.0,85,0.00,,,0.00,0,Wunderground v.1.15,2013-07-21 02:57:00,
2013-07-20 23:02:00,77.9,73.0,30.06,SE,131,0.0,0.0,85,0.00,,,0.00,0,Wunderground v.1.15,2013-07-21 03:02:00,
2013-07-20 23:17:00,77.9,73.0,30.06,SE,126,0.0,1.0,85,0.00,,,0.00,0,Wunderground v.1.15,2013-07-21 03:17:00,
2013-07-20 23:37:00,77.7,73.2,30.07,SE,131,0.0,1.0,86,0.00,,,0.00,0,Wunderground v.1.15,2013-07-21 03:37:00,
2013-07-20 23:47:00,77.7,73.2,30.08,SE,131,1.0,2.0,86,0.00,,,0.00,0,Wunderground v.1.15,2013-07-21 03:47:00,
2013-07-20 23:52:00,77.6,73.1,30.08,SE,131,1.0,1.0,86,0.00,,,0.00,0,Wunderground v.1.15,2013-07-21 03:52:00,
2013-07-20 23:57:00,77.6,73.1,30.08,SE,131,0.0,1.0,86,0.00,,,0.00,0,Wunderground v.1.15,2013-07-21 03:57:00,